Location: Unspecified
(0.0000°N, 0.0000°E)
Time: 23:56:19
(UTC+00:00)

A-11 Canister half - Visible Passes

Search period start: 19 November 2019 00:00
Search period end: 29 November 2019 00:00
Orbit: 1527 x 1682 km, 47.3° (Epoch: 18 November)

Date Brightness Start Highest point End Pass type
(mag) Time Alt. Az. Time Alt. Az. Time Alt. Az.
19 Nov 9.6 19:03:23 10° N 19:11:06 29° NE 19:11:51 28° ENE visible
19 Nov 10.3 21:06:51 10° NW 21:10:19 26° WNW 21:10:19 26° WNW visible
20 Nov 9.7 18:41:58 10° N 18:49:28 27° NE 18:53:45 19° E visible
20 Nov 9.4 20:45:10 10° NW 20:52:18 52° W 20:52:18 52° W visible
21 Nov 9.8 18:20:35 10° N 18:27:48 25° NE 18:34:57 10° E visible
21 Nov 9.1 20:23:29 10° NW 20:32:42 66° SW 20:35:51 44° SSE visible
21 Nov11.322:41:30SSW22:41:30SSW22:34:42WSWvisible
22 Nov 9.9 17:59:13 10° N 18:06:09 23° NE 18:13:00 10° E visible
22 Nov 9.0 20:01:48 10° NW 20:11:04 71° SW 20:20:22 10° SSE visible
22 Nov 11.2 22:13:27 10° WSW 22:16:27 12° SW 22:19:29 10° SSW visible
23 Nov 9.0 19:40:08 10° NW 19:49:28 76° SW 19:58:47 10° SE visible
23 Nov 11.2 21:50:53 10° WSW 21:54:45 13° SW 21:58:39 10° SSW visible
24 Nov 9.0 19:18:29 10° NW 19:27:51 81° SW 19:37:11 10° SE visible
24 Nov 11.2 21:28:31 10° WSW 21:33:03 14° SW 21:37:38 10° SSW visible
25 Nov 9.0 18:56:50 10° NW 19:06:14 87° SW 19:15:35 10° SE visible
25 Nov 11.1 21:06:16 10° W 21:11:22 16° SW 21:16:31 10° SSW visible
26 Nov 9.0 18:35:12 10° NW 18:44:37 88° NE 18:53:57 10° SE visible
26 Nov 11.1 20:44:05 10° W 20:49:41 17° SW 20:55:20 10° S visible
27 Nov 10.7 05:21:56 10° SSW 05:31:07 40° SE 05:40:22 10° ENE visible
27 Nov 9.0 18:13:35 10° NW 18:23:01 83° NE 18:32:20 10° SE visible
27 Nov 11.1 20:21:59 10° W 20:28:01 19° SW 20:34:05 10° S visible
28 Nov 10.7 05:00:27 10° SSW 05:09:27 38° SE 05:18:31 10° ENE visible
28 Nov 11.1 19:59:56 10° W 20:06:21 21° SW 20:12:48 10° S visible
